Regional Weather Roundup
Issued by NWS

Home | Current Version | Previous Version | Graphics & Text | Print | Product List | Glossary On
Versions: 1 2 3 4 5 6 7 8 9 10 11 12 13 14 15 16 17 18 19 20 21 22 23 24 25 26 27 28 29 30 31 32 33 34 35 36 37 38 39 40 41 42 43 44 45 46 47 48 49
000
ASUS45 KTFX 271910
RWRMT
MONTANA REGIONAL WEATHER ROUNDUP
NATIONAL WEATHER SERVICE GREAT FALLS MT
100 PM MDT MON JUL 27 2015

NOTE: "FAIR" INDICATES FEW OR NO CLOUDS BELOW 12000 FEET WITH NO
SIGNIFICANT WEATHER AND/OR OBSTRUCTIONS TO VISIBILITY.

MTZ001>007-043-272000-
WEST OF THE DIVIDE

CITY           SKY/WX    TMP DP  RH WIND       PRES   REMARKS
KALISPELL      CLOUDY    59  47  64 S12       29.98R
MISSOULA       CLOUDY    56  47  71 SE3       30.01S
BUTTE          RAIN      46  43  89 W13       30.03R
MULLAN PASS    MOSUNNY   51  39  63 VRB6      30.07F
DEER LODGE       N/A     50  45  81 NW6       30.06R
EUREKA           N/A     66  43  42 NW6       29.97F
HAMILTON         N/A     54  48  82 S6        30.03S
LIBBY            N/A     64  41  42 SE3       29.99F
PLAINS           N/A     68  41  37 W6        29.99S
RONAN            N/A     58  49  72 E3        30.04S
$$

MTZ008-052>055-272000-
SOUTHWEST MONTANA

CITY           SKY/WX    TMP DP  RH WIND       PRES   REMARKS
BOZEMAN        LGT RAIN  50  48  93 SW9       30.00R FOG
DILLON         RAIN      49  46  90 N5        29.99F FOG
W YELLOWSTONE  CLOUDY    46  41  81 W12G23    30.03R
TWIN BRIDGES     N/A     50  45  83 SW3       30.00R
$$

MTZ009-010-012-014-046-048-049-054-272000-
EAST SLOPES AND CENTRAL MONTANA

CITY           SKY/WX    TMP DP  RH WIND       PRES   REMARKS
CUT BANK       CLOUDY    60  44  55 N7        29.95F
GREAT FALLS    LGT RAIN  53  51  93 NW10      29.95S
MALMSTROM AFB  LGT RAIN  53  50  90 NW12      29.95F
HELENA         CLOUDY    56  49  77 N5        29.96S
CONRAD           N/A     55  55 100 W5        29.99S
$$

MTZ011-013-016-021-045-047-050-051-272000-
NORTH CENTRAL MONTANA

CITY           SKY/WX    TMP DP  RH WIND       PRES   REMARKS
HAVRE          CLOUDY    57  54  89 N15       29.85F
LEWISTOWN      LGT RAIN  54  52  93 NW13G22   29.88S FOG
CHINOOK          N/A     61  57  88 W12       29.84S
FORT BENTON      N/A     55  54  94 W12       29.92S
$$

MTZ017>020-022>027-061-062-272000-
NORTHEAST MONTANA

CITY           SKY/WX    TMP DP  RH WIND       PRES   REMARKS
GLASGOW        CLOUDY    80  57  45 NE12      29.69F
JORDAN           N/A     75  57  53 N8        29.72F
SIDNEY         MOSUNNY  N/A N/A N/A SE13      29.66F
WOLF POINT     SUNNY     84  58  40 NE9       29.67F
MALTA            N/A     76  59  55 NE6       29.74F
PLENTYWOOD       N/A     81  61  50 NE13G22   29.71F
POPLAR           N/A     82  59  44 E8G17     29.68F
SCOBEY           N/A     70  58  65 N20       29.76F
$$

MTZ028>42-056>058-272000-
SOUTHCENTRAL AND SOUTHEAST MONTANA

CITY           SKY/WX    TMP DP  RH WIND       PRES   REMARKS
BAKER          CLOUDY    83  58  42 S10       29.71F
BILLINGS       PTSUNNY   73  54  51 E10       29.78F
LIVINGSTON     CLOUDY    55  46  71 W25G40    29.93R
MILES CITY     SUNNY     85  60  42 VRB5      29.65F
EKALAKA          N/A     81  55  40 NE5       29.74F
FORSYTH          N/A     81  59  47 N9        29.68F
LAUREL           N/A     73  52  47 NE6       29.80F
ROUNDUP          N/A     73  51  45 N12       29.73S
$$

REGIONAL REPORTS...DAKOTAS

CITY           SKY/WX    TMP DP  RH WIND       PRES   REMARKS
WILLISTON      SUNNY     90  57  32 SE17G23   29.68F
MINOT          SUNNY     87  64  46 E18G28    29.70F
DICKINSON      SUNNY     87  65  47 S20G26    29.69F
BEACH          FAIR      84  59  42 SE10G21   29.69F
CROSBY         FAIR      81  64  57 E13       29.73F
BISMARCK       SUNNY     89  69  51 SE16G26   29.72F HX  93
GRAND FORKS    PTSUNNY   86  70  58 S13       29.83F HX  90
FARGO          PTSUNNY   85  70  60 S13       29.83F
BUFFALO SD       N/A     88  59  37 S6        29.65F
RAPID CITY     SUNNY     88  66  48 S16       29.73F HX  90
$$

REGIONAL REPORTS...WYOMING/IDAHO/WASHINGTON

CITY           SKY/WX    TMP DP  RH WIND       PRES   REMARKS
GILLETTE       SUNNY     89  49  25 N7        29.73F
SHERIDAN       MOSUNNY   76  53  44 NW12      29.78F
BUFFALO WY     MOSUNNY   76  51  41 N16G26    29.82F
CODY           SUNNY     70  54  56 NE12G18   29.81F
YELLOWSTONE LA   N/A     59  40  49 W16G28    30.05R
IDAHO FALLS    LGT RAIN  50  48  93 S16       30.04S
SALMON         CLOUDY    52  50  93 SW7       30.00R
BOISE          MOSUNNY   70  39  32 NW16G28   30.05S
SPOKANE        MOSUNNY   68  40  35 W14G22    30.04R
$$

REGIONAL REPORTS...ALBERTA

CITY           SKY/WX    TMP DP  RH WIND       PRES   REMARKS
EDMONTON       PTSUNNY   68  48  49 W7        29.94S
CALGARY        LGT RAIN  61  45  55 N10       29.99S
LETHBRIDGE     CLOUDY    63  46  55 NW15      29.95S
MEDICINE HAT   LGT RAIN  63  54  72 SW6       29.90F
WATERTON GATE    N/A     55  46  71 NE3         N/A
CARDSTON         N/A     61  45  55 N7          N/A
MILK RIVER       N/A     61  46  59 N13G18      N/A
ONEFOUR          N/A     55  52  88 NW18        N/A
$$

REGIONAL REPORTS...SASKATCHEWAN

CITY           SKY/WX    TMP DP  RH WIND       PRES   REMARKS
SWIFT CURRENT  PTSUNNY   64  59  82 NE5       29.85S
REGINA         LGT RAIN  61  57  88 NE13G20   29.82S
SASKATOON      CLOUDY    66  57  72 NE12      29.89S
CYPRESS HILLS    N/A     52  48  87 NW9G18      N/A
VAL MARIE        N/A     72  59  64 E14G21      N/A
ROCKGLEN         N/A     63  59  88 N10G21      N/A
ASSINIBOIA       N/A     66  52  59 NW3         N/A
$$


USA.gov is the U.S. government's official web portal to all federal, state and local government web resources and services.